Weather History for Ahwaz, Iran

Change the Weather History Date:

Wednesday, April 25, 2012

  Actual Average Record
Temperature  
Mean Temperature 82 °F -  
Max Temperature 97 °F - - ()
Min Temperature 68 °F - - ()
Cooling Degree Days 18    
Growing Degree Days 32 (Base 50)    
Moisture  
Dew Point 46 °F    
Average Humidity 28    
Maximum Humidity 64    
Minimum Humidity 5    
Precipitation  
Precipitation 0.00 in - - ()
Sea Level Pressure  
Sea Level Pressure 29.77 in    
Wind  
Wind Speed 6 mph ()    
Max Wind Speed 16 mph    
Max Gust Speed -    
Visibility 3.8 miles    
Events      
T = Trace of Precipitation, MM = Missing Value Source: Averaged Metar Reports

Daily Weather History Graph

Daily Weather History Graph

Search for Another Location

Airport:

Trip Planner

Search our weather history database for the weather conditions in past years. The results will help you decide how hot, cold, wet, or windy it might be!

Date:

Astronomy

Apr. 25, 2012 Rise Set
Actual Time 6:36 AM IRDT 7:50 PM IRDT
Civil Twilight 6:10 AM IRDT 8:16 PM IRDT
Nautical Twilight 5:40 AM IRDT 8:46 PM IRDT
Astronomical Twilight 5:09 AM IRDT 9:17 PM IRDT
Moon 9:11 AM IRDT 11:30 PM IRDT
Length of Visible Light 14h 05m
Length of Day
13h 14m
Waxing Crescent, 14% of the Moon is Illuminated
Apr 25
Waxing Crescent
Apr 29
First Quarter
May 6
Full
May 13
Last Quarter
May 21
New

Hourly Weather History & Observations

Time (IRDT) Temp. Heat Index Dew Point Humidity Pressure Visibility Wind Dir Wind Speed Gust Speed Precip Events Conditions
12:30 AM 82.4 °F - 48.2 °F 30% 29.74 in - NW 6.9 mph - N/A   Clear
1:30 AM 80.6 °F - 44.6 °F 28% 29.74 in - NW 11.5 mph - N/A   Clear
2:30 AM 78.8 °F - 42.8 °F 28% 29.74 in - NNW 9.2 mph - N/A   Clear
3:30 AM 77.0 °F - 46.4 °F 34% 29.74 in - Calm Calm - N/A   Clear
4:30 AM 72 °F - 50 °F 34% 29.77 in 6 mi Calm Calm - -  
4:30 AM 71.6 °F - 50.0 °F 46% 29.74 in - Calm Calm - N/A   Clear
5:30 AM 68.0 °F - 48.2 °F 49% 29.74 in - Calm Calm - N/A   Clear
6:30 AM 69.8 °F - 51.8 °F 53% 29.74 in 4.3 mi SSE 4.6 mph - N/A   Clear
7:30 AM 68.0 °F - 55.4 °F 64% 29.77 in 4.3 mi SSE 4.6 mph - N/A   Clear
8:00 AM 71.6 °F - 57.2 °F 60% 29.77 in 3.7 mi Calm Calm - N/A   Clear
8:30 AM 78.8 °F - 53.6 °F 42% 29.80 in 3.7 mi South 4.6 mph - N/A   Clear
9:00 AM 75.2 °F - 55.4 °F 50% 29.77 in 3.7 mi WNW 4.6 mph - N/A   Clear
10:00 AM 80.6 °F 80.3 °F 53.6 °F 39% 29.80 in 2.5 mi Calm Calm - N/A   Haze
10:30 AM 83 °F - 53 °F 26% 29.82 in 2 mi NNE 4.5 mph - -   Haze
10:30 AM 82.4 °F 81.4 °F 53.6 °F 37% 29.80 in 2.5 mi NNE 4.6 mph - N/A   Haze
11:00 AM 86.0 °F 84.2 °F 53.6 °F 33% 29.80 in 2.5 mi SW 6.9 mph - N/A   Haze
11:30 AM 87.8 °F 85.7 °F 53.6 °F 31% 29.83 in 2.5 mi West 4.6 mph - N/A   Haze
12:00 PM 89.6 °F 87.3 °F 53.6 °F 29% 29.80 in 3.7 mi NW 6.9 mph - N/A   Clear
12:30 PM 91.4 °F - 51.8 °F 26% 29.80 in 4.3 mi North 6.9 mph - N/A   Clear
1:00 PM 93.2 °F - 50.0 °F 23% 29.80 in - NNW 9.2 mph - N/A   Clear
1:30 PM 95.0 °F - 37.4 °F 13% 29.77 in - West 16.1 mph - N/A   Clear
2:00 PM 95.0 °F - 39.2 °F 14% 29.77 in - WNW 16.1 mph - N/A   Clear
2:30 PM 95.0 °F - 35.6 °F 12% 29.77 in - North 13.8 mph - N/A   Clear
3:00 PM 95.0 °F - 35.6 °F 12% 29.77 in - NW 9.2 mph - N/A   Clear
3:30 PM 95.0 °F - 35.6 °F 12% 29.77 in - NNW 11.5 mph - N/A   Clear
4:00 PM 95.0 °F - 35.6 °F 12% 29.77 in - NNW 13.8 mph - N/A   Clear
4:30 PM 97 °F - 32 °F 5% 29.76 in 6 mi NW 13.4 mph - -  
4:30 PM 96.8 °F - 32.0 °F 10% 29.74 in - NW 13.8 mph - N/A   Clear
5:30 PM 96.8 °F - 33.8 °F 11% 29.74 in - NNW 11.5 mph - N/A   Clear
6:30 PM 95.0 °F - 35.6 °F 12% 29.74 in - NNW 13.8 mph - N/A   Clear
7:30 PM 93.2 °F - 37.4 °F 14% 29.74 in - NW 13.8 mph - N/A   Clear
8:30 PM 89.6 °F - 37.4 °F 16% 29.74 in - NW 11.5 mph - N/A   Clear
9:30 PM 87.8 °F - 39.2 °F 18% 29.74 in - NW 4.6 mph - N/A   Clear
10:30 PM 83 °F - 49 °F 20% 29.78 in 6 mi NW 4.5 mph - -  
10:30 PM 84.2 °F - 48.2 °F 29% 29.77 in - NW 4.6 mph - N/A   Clear
11:30 PM 80.6 °F - 48.2 °F 32% 29.77 in - North 4.6 mph - N/A   Clear